Tracking 25995 objects as of 20-Aug-2022
HD Live streaming from Space Station
objects crossing your sky now

NSTAR A

Track NSTAR A now!
NSTAR A is classified as:


NORAD ID: 23651
Int'l Code: 1995-044A
Perigee: 36,041.8 km
Apogee: 36,192.3 km
Inclination: 11.6 °
Period: 1,452.6 minutes
Semi major axis: 42488 km
RCS: 15.8489 m2 (large)
Launch date: August 29, 1995
Source: Japan (JPN)
Launch site: FRENCH GUIANA (FRGUI)

Voice and TV broadcast to Japan and neighboring region.
aabbcc
Your satellite tracking list
Your tracking list is empty




NASA's NSSDC Master Catalog

Two Line Element Set (TLE):
1 23651U 95044A   22231.55299113 -.00000053  00000-0  00000-0 0  9993
2 23651  11.5518  30.6411 0017709   4.8795 330.5181  0.99129388 98054
Source of the keplerian elements: AFSPC